Simultaneous Nadir Overpasses (SNOs) Predictions

Prediction of SNOs between GOES-15 and NOAA-19 Satellite Orbit:

Table of predicted SNOs for the next 14.0 days since TLE Epoch: 4/11/2025
Index Date Time (GOES-15) GOES-15 Lat,Lon NOAA-19 Lat,Lon Distance(km) Time Diff (sec)
1 04/14/2025 05:47:08 -0.14, 61.37 0.43, 58.91 281.02 80
2 04/15/2025 05:37:12 -0.14, 61.38 -0.25, 61.97 67.12 80
3 04/16/2025 05:24:36 -0.15, 61.39 -0.99, 65.02 414.96 80
4 04/17/2025 17:56:00 0.15, 61.36 -0.73, 57.48 443.02 80
5 04/18/2025 17:43:23 0.16, 61.38 -0.06, 60.54 95.76 80
6 04/19/2025 17:28:08 0.16, 61.39 0.68, 63.60 251.48 80
7 04/22/2025 05:46:40 -0.17, 61.49 0.33, 59.17 264.21 80
8 04/23/2025 05:36:43 -0.17, 61.51 -0.31, 62.24 83.12 80
9 04/24/2025 05:24:07 -0.17, 61.53 -1.02, 65.30 430.32 80
10 04/25/2025 17:55:31 0.17, 61.51 -0.71, 57.76 428.84 80
